Regional Weather Roundup
Issued by NWS Sterling, VA

Home | Current Version | Previous Version | Text Only | Print | Product List | Glossary Off
Versions: 1 2 3 4 5 6 7 8 9 10 11 12 13 14 15 16 17 18 19 20 21 22 23 24 25 26 27 28 29 30 31 32 33 34 35 36 37 38 39 40 41 42 43 44 45 46 47 48 49 50

000
ASUS41 KLWX 311910
RWRLWX

REGIONAL WEATHER ROUNDUP
NATIONAL WEATHER SERVICE BALTIMORE MD/WASHINGTON DC
300 PM EDT THU JUL 31 2014

Note: "FAIR" indicates few or no clouds below 12,000 feet
with no significant weather and/or obstructions to visibility.
 TC=TEMPERATURE CELSIUS

 * =Non NWS site. Station does not report precipitation (e.g. rain,
    snow, etc.), thunder, or fog.

DCZ001-MDZ009-015-VAZ040>042-051-053>054-312000-
WASHINGTON METRO
  /KDAA//-FT BELVOIR

CITY           SKY/WX    TMP DP  RH WIND       PRES   REMARKS
WASHINGTON NAT PTSUNNY   87  60  40 SW8       30.09S
DULLES         MOSUNNY   84  55  36 SW10      30.09S
ANDREWS AFB    PTSUNNY   85  62  45 S12G20    30.09F
QUANTICO       PTSUNNY   86  57  37 VRB5      30.09F
COLLEGE PARK*  MOSUNNY   86  57  37 S3        30.08S
LEESBURG*      PTSUNNY   84  59  42 CALM      30.10S
GAITHERSBURG*  PTSUNNY   82  59  44 SW6       30.13S

$$

MDZ006>007-011-014-312000-
BALTIMORE METRO

CITY           SKY/WX    TMP DP  RH WIND       PRES   REMARKS
BWI AIRPORT    MOSUNNY   86  56  35 VRB5      30.08S
MD SCIENCE CTR   N/A     86  56  35 MISG      30.08S
MARTIN STATE   MOSUNNY   84  70  61 SE12      30.10S
ANNAPOLIS      MOSUNNY   81  62  52 SE10      30.09S
FORT MEADE*    MOSUNNY   82  57  42 SW5       30.11S

$$

MDZ012-015-019>023-312000-
MARYLAND EASTERN SHORE

CITY           SKY/WX    TMP DP  RH WIND       PRES   REMARKS
OCEAN CITY     MOSUNNY   80  69  69 SW10      30.13S
SALISBURY      SUNNY     87  59  38 SW13      30.11F
BAY BRIDGE AP*   N/A     82  59  44 S10       30.10S
CAMBRIDGE*     MOSUNNY   84  59  42 SW7       30.11S
EASTON*        MOSUNNY   86  63  45 SW9       30.14S

$$

MDZ017>025-312000-
SOUTHERN MARYLAND

CITY           SKY/WX    TMP DP  RH WIND       PRES   REMARKS
PATUXENT RIVER PTSUNNY   82  66  58 SE14G22   30.10S
ST INIGOES     MOSUNNY   82  61  48 S8        30.10S
LEONARDTOWN*   MOSUNNY   82  57  42 W8        30.12S

$$

MDZ003>005-312000-
NORTH CENTRAL MARYLAND

CITY           SKY/WX    TMP DP  RH WIND       PRES   REMARKS
FREDERICK*     MOSUNNY   84  61  45 W7        30.12F
HAGERSTOWN APT SUNNY     81  59  47 S8        30.10F
WESTMINSTER*   MOSUNNY   82  63  51 SW9       30.11F

$$

MDZ501>502-312000-
WESTERN MARYLAND

CITY           SKY/WX    TMP DP  RH WIND       PRES   REMARKS
OAKLAND*       PTSUNNY   68  54  60 W8        30.20R
CUMBERLAND*    MOSUNNY   84  55  37 NW3       30.13S

$$

VAZ025>031-312000-
SHENANDOAH VALLEY

CITY           SKY/WX    TMP DP  RH WIND       PRES   REMARKS
WINCHESTER*    MOSUNNY   82  55  39 SW5       30.10F
STAUNTON*      MOSUNNY   83  49  29 S8        30.13F

$$

WVZ021-048>050-054>055-312000-
EASTERN WEST VIRGINIA PANHANDLE

CITY           SKY/WX    TMP DP  RH WIND       PRES   REMARKS
MARTINSBURG    MOSUNNY   82  55  39 S6        30.10F
PETERSBURG*    MOSUNNY   83  50  31 S3        30.11S

$$

VAZ036>039-050-312000-
CENTRAL FOOTHILLS

CITY           SKY/WX    TMP DP  RH WIND       PRES   REMARKS
CHARLOTTESVILL MOSUNNY   84  56  38 MISG      30.11S
ORANGE*        SUNNY     86  55  35 SW8       30.11F

$$

VAZ055>057-312000-
NORTH AND CENTRAL PIEDMONT

CITY           SKY/WX    TMP DP  RH WIND       PRES   REMARKS
FREDERICKSBRG* MOSUNNY   87  58  37 SW10      30.09S
STAFFORD*      MOSUNNY   86  56  35 SW8       30.13F

$$

NCZ024-NYZ072-PAZ021-071-VAZ022-071-312000-
OTHER REGIONAL OBSERVATIONS

CITY           SKY/WX    TMP DP  RH WIND       PRES   REMARKS
NEW YORK CITY  PTSUNNY   81  60  48 MISG      30.11R
PHILADELPHIA   MOSUNNY   84  61  45 W15       30.08F
PITTSBURGH     PTSUNNY   75  58  55 W9        30.10R
ROANOKE        PTSUNNY   79  61  53 SE12      30.15S
RICHMOND       CLOUDY    84  62  47 S9        30.12S
RALEIGH        CLOUDY    80  65  59 SE7       30.14S

$$

ANZ530>537-312000-
MARINE OBSERVATIONS

STATION/POSITION TIME  TEMP    WIND        PRES
                       AIR SEA DIR/SP/G
                 (UTC) (F)     (DEG/KT/KT) (MB)
THOMAS PT LIGHT  1900   78 78  160/ 16/ 17 1019.4F
BALT KEY BRIDGE  1900   82     180/  9/ 12 1018.3F
COVE POINT       1900   77     170/ 15/ 17 1019.4S
LEWISETTA        1900   81 80  200/ 11/ 14 1019.2F
SOLOMONS ISLAND  1900      80                N/A
PINEY POINT      1900          200/  7/  9   N/A

$$




USA.gov is the U.S. government's official web portal to all federal, state and local government web resources and services.